| time (UTC) | temp F | wind direction | speed knots | gust knots | rain 1hr in | rain 24hr in | rain mn in | humidity % | barometer mb |
| 20260505200055 | 80 | 213 | 2.6 | 7.0 | 0.00 | 0.00 | 0.00 | 46 | 1012.0 |
| 20260505194557 | 79 | 268 | 3.5 | 6.1 | 0.00 | 0.00 | 0.00 | 47 | 1012.3 |
| 20260505193054 | 80 | 262 | 3.5 | 7.0 | 0.00 | 0.00 | 0.00 | 48 | 1012.4 |
| 20260505191604 | 80 | 276 | 2.6 | 6.1 | 0.00 | 0.00 | 0.00 | 47 | 1012.6 |
| 20260505190108 | 80 | 282 | 1.7 | 7.0 | 0.00 | 0.00 | 0.00 | 47 | 1012.8 |
| 20260505184554 | 80 | 280 | 1.7 | 6.1 | 0.00 | 0.00 | 0.00 | 46 | 1012.9 |
| 20260505183054 | 78 | 257 | 4.3 | 7.0 | 0.00 | 0.00 | 0.00 | 46 | 1013.3 |
| 20260505181638 | 79 | 275 | 3.5 | 7.8 | 0.00 | 0.00 | 0.00 | 48 | 1013.2 |
| 20260505180103 | 79 | 275 | 3.5 | 7.8 | 0.00 | 0.00 | 0.00 | 47 | 1013.1 |
| 20260505174556 | 78 | 260 | 2.6 | 7.8 | 0.00 | 0.00 | 0.00 | 47 | 1013.1 |
| 20260505173055 | 77 | 286 | 3.5 | 8.7 | 0.00 | 0.00 | 0.00 | 49 | 1013.4 |
| 20260505171603 | 77 | 279 | 4.3 | 8.7 | 0.00 | 0.00 | 0.00 | 49 | 1013.5 |
| 20260505170055 | 77 | 243 | 3.5 | 9.6 | 0.00 | 0.00 | 0.00 | 51 | 1013.5 |
| 20260505164555 | 77 | 240 | 1.7 | 6.1 | 0.00 | 0.00 | 0.00 | 52 | 1013.9 |
| 20260505163057 | 76 | 276 | 3.5 | 7.8 | 0.00 | 0.00 | 0.00 | 54 | 1014.1 |
| 20260505161555 | 75 | 248 | 2.6 | 6.1 | 0.00 | 0.00 | 0.00 | 55 | 1014.1 |
| 20260505153059 | 73 | 0 | 2.6 | 6.1 | 0.00 | 0.00 | 0.00 | 61 | 1014.4 |
| 20260505151559 | 73 | 284 | 3.5 | 7.0 | 0.00 | 0.00 | 0.00 | 60 | 1014.5 |
| 20260505140109 | 69 | 271 | 2.6 | 6.1 | 0.00 | 0.00 | 0.00 | 70 | 1014.3 |
| 20260505124554 | 62 | 269 | 1.7 | 3.5 | 0.00 | 0.00 | 0.00 | 81 | 1014.2 |
| 20260505123101 | 61 | 242 | 0.0 | 1.7 | 0.00 | 0.00 | 0.00 | 84 | 1014.0 |
| 20260505121555 | 58 | 0 | 0.0 | 0.9 | 0.00 | 0.00 | 0.00 | 88 | 1013.8 |
| 20260505120117 | 56 | 0 | 0.0 | 0.9 | 0.00 | 0.00 | 0.00 | 92 | 1014.0 |
| 20260505114557 | 52 | 0 | 0.0 | 0.9 | 0.00 | 0.00 | 0.00 | 96 | 1013.7 |
| 20260505113056 | 51 | 0 | 0.0 | 0.0 | 0.00 | 0.00 | 0.00 | 95 | 1013.7 |
| 20260505111557 | 50 | 0 | 0.0 | 0.0 | 0.00 | 0.00 | 0.00 | 95 | 1013.5 |
| 20260505110112 | 50 | 0 | 0.0 | 0.0 | 0.00 | 0.00 | 0.00 | 95 | 1013.6 |
| 20260505101601 | 50 | 0 | 0.0 | 0.0 | 0.00 | 0.00 | 0.00 | 93 | 1013.2 |
| 20260505100055 | 50 | 0 | 0.0 | 0.0 | 0.00 | 0.00 | 0.00 | 93 | 1013.0 |
| 20260505094557 | 51 | 0 | 0.0 | 0.0 | 0.00 | 0.00 | 0.00 | 92 | 1013.0 |
| 20260505093056 | 51 | 0 | 0.0 | 0.0 | 0.00 | 0.00 | 0.00 | 91 | 1013.1 |
| 20260505091558 | 51 | 0 | 0.0 | 0.0 | 0.00 | 0.00 | 0.00 | 91 | 1013.1 |
| 20260505090057 | 52 | 0 | 0.0 | 0.0 | 0.00 | 0.00 | 0.00 | 90 | 1013.0 |
| 20260505084602 | 52 | 0 | 0.0 | 0.0 | 0.00 | 0.00 | 0.00 | 89 | 1012.9 |
| 20260505083108 | 53 | 0 | 0.0 | 0.0 | 0.00 | 0.00 | 0.00 | 88 | 1012.8 |
| 20260505081554 | 54 | 0 | 0.0 | 0.0 | 0.00 | 0.00 | 0.00 | 87 | 1012.7 |
| 20260505080110 | 54 | 0 | 0.0 | 0.0 | 0.00 | 0.00 | 0.00 | 86 | 1012.7 |
| 20260505074555 | 55 | 0 | 0.0 | 0.0 | 0.00 | 0.00 | 0.00 | 86 | 1012.5 |
| 20260505073101 | 55 | 0 | 0.0 | 0.0 | 0.00 | 0.00 | 0.00 | 85 | 1012.4 |
| 20260505071558 | 56 | 0 | 0.0 | 0.0 | 0.00 | 0.00 | 0.00 | 84 | 1012.3 |
| 20260505070101 | 56 | 0 | 0.0 | 0.0 | 0.00 | 0.00 | 0.00 | 83 | 1012.4 |
| 20260505064648 | 57 | 0 | 0.0 | 0.0 | 0.00 | 0.00 | 0.00 | 83 | 1012.5 |
| 20260505063100 | 57 | 0 | 0.0 | 0.0 | 0.00 | 0.00 | 0.00 | 81 | 1012.8 |
| 20260505061601 | 57 | 0 | 0.0 | 0.0 | 0.00 | 0.00 | 0.00 | 81 | 1012.6 |
| 20260505060104 | 57 | 0 | 0.0 | 0.0 | 0.00 | 0.00 | 0.00 | 81 | 1012.7 |
| 20260505054601 | 58 | 0 | 0.0 | 0.0 | 0.00 | 0.00 | 0.00 | 78 | 1012.7 |
| 20260505053106 | 58 | 0 | 0.0 | 0.0 | 0.00 | 0.00 | 0.00 | 77 | 1012.9 |
| 20260505051558 | 59 | 0 | 0.0 | 0.0 | 0.00 | 0.00 | 0.00 | 76 | 1013.1 |
| 20260505050110 | 59 | 0 | 0.0 | 0.0 | 0.00 | 0.00 | 0.00 | 76 | 1013.1 |
| 20260505041604 | 61 | 0 | 0.0 | 0.0 | 0.00 | 0.00 | 0.00 | 74 | 1013.3 |
| 20260505034609 | 62 | 0 | 0.0 | 0.0 | 0.00 | 0.00 | 0.00 | 71 | 1013.2 |
| 20260505033056 | 63 | 0 | 0.0 | 1.7 | 0.00 | 0.00 | 0.00 | 69 | 1013.3 |
| 20260505031555 | 64 | 251 | 0.0 | 1.7 | 0.00 | 0.00 | 0.00 | 68 | 1013.6 |
| 20260505030127 | 66 | 238 | 0.0 | 3.5 | 0.00 | 0.00 | 0.00 | 65 | 1013.4 |
| 20260505024610 | 66 | 248 | 1.7 | 3.5 | 0.00 | 0.00 | 0.00 | 63 | 1013.3 |
| 20260505023054 | 67 | 251 | 1.7 | 6.1 | 0.00 | 0.00 | 0.00 | 63 | 1013.0 |
| 20260505021554 | 67 | 254 | 1.7 | 3.5 | 0.00 | 0.00 | 0.00 | 62 | 1013.0 |
| 20260505020106 | 67 | 251 | 2.6 | 5.2 | 0.00 | 0.00 | 0.00 | 60 | 1012.9 |
| 20260505014557 | 68 | 251 | 1.7 | 3.5 | 0.00 | 0.00 | 0.00 | 58 | 1012.7 |
| 20260505013055 | 67 | 251 | 1.7 | 3.5 | 0.00 | 0.00 | 0.00 | 57 | 1012.3 |
| 20260505011601 | 66 | 0 | 0.0 | 0.9 | 0.00 | 0.00 | 0.00 | 58 | 1012.1 |
| 20260505010111 | 68 | 0 | 0.0 | 0.9 | 0.00 | 0.00 | 0.00 | 53 | 1011.9 |
| 20260505004622 | 69 | 0 | 0.0 | 1.7 | 0.00 | 0.00 | 0.00 | 51 | 1011.8 |
| 20260505003059 | 70 | 0 | 0.0 | 0.0 | 0.00 | 0.00 | 0.00 | 49 | 1011.6 |
| 20260505001554 | 72 | 0 | 0.0 | 2.6 | 0.00 | 0.00 | 0.00 | 47 | 1011.5 |
| 20260505000111 | 73 | 253 | 0.9 | 5.2 | 0.00 | 0.00 | 0.00 | 46 | 1011.5 |
| 20260504234553 | 74 | 252 | 1.7 | 6.1 | 0.00 | 0.00 | 0.00 | 44 | 1011.3 |
| 20260504233059 | 75 | 256 | 2.6 | 6.1 | 0.00 | 0.00 | 0.00 | 42 | 1011.2 |
| 20260504231621 | 76 | 244 | 1.7 | 5.2 | 0.00 | 0.00 | 0.00 | 40 | 1011.2 |
| 20260504230058 | 76 | 241 | 1.7 | 6.1 | 0.00 | 0.00 | 0.00 | 40 | 1011.0 |
| 20260504224600 | 76 | 237 | 2.6 | 7.0 | 0.00 | 0.00 | 0.00 | 39 | 1011.1 |
| 20260504223058 | 77 | 257 | 1.7 | 6.1 | 0.00 | 0.00 | 0.00 | 39 | 1011.1 |
| 20260504221644 | 77 | 247 | 2.6 | 6.1 | 0.00 | 0.00 | 0.00 | 38 | 1011.1 |
| 20260504220110 | 78 | 250 | 2.6 | 7.0 | 0.00 | 0.00 | 0.00 | 36 | 1011.1 |
| 20260504214604 | 78 | 247 | 0.9 | 8.7 | 0.00 | 0.00 | 0.00 | 36 | 1011.1 |
| 20260504213103 | 78 | 253 | 2.6 | 5.2 | 0.00 | 0.00 | 0.00 | 35 | 1011.2 |
| 20260504211600 | 78 | 262 | 3.5 | 7.0 | 0.00 | 0.00 | 0.00 | 34 | 1011.3 |
| 20260504210058 | 79 | 265 | 2.6 | 7.0 | 0.00 | 0.00 | 0.00 | 34 | 1011.2 |
| 20260504204556 | 79 | 243 | 2.6 | 7.8 | 0.00 | 0.00 | 0.00 | 35 | 1011.3 |
| 20260504203058 | 79 | 277 | 1.7 | 7.0 | 0.00 | 0.00 | 0.00 | 35 | 1011.4 |
| 20260504201602 | 79 | 253 | 2.6 | 6.1 | 0.00 | 0.00 | 0.00 | 33 | 1011.4 |